This is the latest recevied weather packets stored in our database for station/object HP1CDW-13. If no packets are shown the sender has not sent any weather packets the latest 10 day(s).
| Time | Temp. | Humidity | Pressure | Rain* | Wind** | Luminosity | Snow |
|---|---|---|---|---|---|---|---|
| 1778205290 | 28.33° C | 82% | 1013.8 hPa | 0 mm | - | - | - |
| 1778204690 | 28.33° C | 82% | 1013.9 hPa | 0 mm | - | - | - |
| 1778204090 | 28.33° C | 82% | 1013.4 hPa | 0 mm | - | - | - |
| 1778203490 | 28.33° C | 81% | 1013.2 hPa | 0 mm | - | - | - |
| 1778202890 | 28.89° C | 81% | 1013.3 hPa | 0 mm | - | - | - |
| 1778202290 | 28.89° C | 81% | 1013.1 hPa | 0 mm | - | - | - |
| 1778201690 | 28.89° C | 81% | 1012.8 hPa | 0 mm | - | - | - |
| 1778201090 | 28.89° C | 80% | 1012.9 hPa | 0 mm | - | - | - |
| 1778200490 | 28.89° C | 80% | 1012.8 hPa | 0 mm | - | - | - |
| 1778199890 | 28.89° C | 80% | 1012.7 hPa | 0 mm | - | - | - |
| 1778199290 | 29.44° C | 79% | 1012.6 hPa | 0 mm | - | - | - |
| 1778198690 | 29.44° C | 78% | 1012.6 hPa | 0 mm | - | - | - |
| 1778198090 | 30° C | 77% | 1012.6 hPa | 0 mm | - | - | - |
| 1778197490 | 30° C | 77% | 1013 hPa | 0 mm | - | - | - |
| 1778196890 | 30° C | 76% | 1012.6 hPa | 0 mm | - | - | - |
| 1778196290 | 30.56° C | 77% | 1012.6 hPa | 0 mm | - | - | - |
| 1778195690 | 30.56° C | 77% | 1012.3 hPa | 0 mm | - | - | - |
| 1778195090 | 30.56° C | 76% | 1012.1 hPa | 0 mm | - | - | - |
| 1778194490 | 30.56° C | 83% | 1011.7 hPa | 0 mm | - | - | - |
| 1778193890 | 30.56° C | 85% | 1011.6 hPa | 0 mm | - | - | - |
| 1778193290 | 30.56° C | 85% | 1011.5 hPa | 0 mm | - | - | - |
| 1778192690 | 31.11° C | 83% | 1011.2 hPa | 0 mm | - | - | - |
| 1778192090 | 30.56° C | 86% | 1011.6 hPa | 0 mm | - | - | - |
| 1778191490 | 30° C | 88% | 1011.7 hPa | 0.25 mm | - | - | - |
| 1778190890 | 30° C | 87% | 1011.7 hPa | 2.79 mm | - | - | - |
* Rain latest hour (hover to see other rain measurements)
** Current wind speed in m/s (hover to see current wind gust speed)